User: anonymous   Login
Location: Unspecified
(0.0000°N, 0.0000°E)
Time: 00:21:20
(UTC+00:00)
Language:

UFO 10 - Orbit

View from above orbital plane
View from above orbital plane
View from above satellite
View from above satellite

Ground track
Ground track

The orbit data is extracted from the following two-line orbital elements,

1 25967U 99063A   17051.49295331 0.00000000  00000-0  00000-0 0    09
2 25967   6.4724  39.5653 0011194 331.2614  28.6791  1.00270000    04
Epoch (UTC): 20 February 2017 11:49:51
Eccentricity: 0.0011194
inclination: 6.4724°
perigee height: 35739 km
apogee height: 35834 km
right ascension of ascending node: 39.5653°
argument of perigee: 331.2614°
revolutions per day: 1.00270000
mean anomaly at epoch: 28.6791°
orbit number at epoch: 0

The dashed part of the orbit path shows where the satellite is in the earth's shadow,  

DLR